Regional Weather Roundup
Issued by NWS

Home | Current Version | Previous Version | Text Only | Print | Product List | Glossary On
Versions: 1 2 3 4 5 6 7 8 9 10 11 12 13 14 15 16 17 18 19 20 21 22 23 24 25 26 27 28 29 30 31 32 33 34 35 36 37 38 39 40 41 42 43 44 45 46 47 48 49 50
000
ASUS43 KDTX 220110
RWRMI
MICHIGAN HOURLY REGIONAL WEATHER ROUNDUP
NATIONAL WEATHER SERVICE DETROIT/PONTIAC MI
900 PM EDT THU SEP 21 2017

NOTE: "FAIR" INDICATES FEW OR NO CLOUDS BELOW 12,000 FEET WITH NO
SIGNIFICANT WEATHER AND/OR OBSTRUCTION TO VISIBILITY.

MIZ047>049-052>055-059>063-066>070-074>076-081>083-220200-
SOUTHEAST LOWER MICHIGAN

CITY           SKY/WX    TMP DP  RH WIND       PRES   REMARKS
ADRIAN         MOCLDY    79  66  64 E10       30.09R
ALMA           PTCLDY    71  63  76 CALM      30.06F
ANN ARBOR      PTCLDY    75  66  73 E3        30.09R
BAD AXE        PTCLDY    75  69  82 SE3       30.08R
CARO           MOCLDY    71  64  77 CALM      30.06R
DETROIT CITY   CLOUDY    77  67  71 SE5       30.09R
DETROIT        CLOUDY    78  70  76 W3        30.10R
FLINT          CLOUDY    72  61  68 VRB5      30.05F
GROSSE ILE     PTCLDY    75  67  75 CALM      30.08R
HILLSDALE      CLOUDY    73  63  68 NE3       30.09R
HOWELL         CLOUDY    69  65  87 W3        30.07S

CITY           SKY/WX    TMP DP  RH WIND       PRES   REMARKS
JACKSON        CLOUDY    74  65  73 CALM      30.09R
LAMBERTVILLE   PTCLDY    76  71  84 CALM      30.06S
LANSING        CLOUDY    72  65  78 CALM      30.06F
LAPEER         FAIR      76  65  67 SE6       30.08S
MASON          CLOUDY    69  65  89 S5        30.08S
MONROE         CLOUDY    74  68  80 N5        30.08R
MT. CLEMENS    CLOUDY    74  69  84 S6        30.09R
PONTIAC        CLOUDY    76  62  62 CALM      30.08R
PORT HOPE        N/A     76  68  76 S7        30.04R
PORT HURON     CLOUDY    73  66  78 CALM      30.09R
TRI CITIES     PTCLDY    76  63  64 SW9       30.05S
MIDLAND        FAIR      76  63  63 SW6       30.05S
TROY           CLOUDY    81  70  71 CALM      30.10R
SAGINAW HB     CLOUDY    73  63  68 SW6       30.05R
$$
MIZ043>046-050>051-056>058-064>065-071>073-077>080-220200-
SOUTHWEST LOWER MICHIGAN

CITY           SKY/WX    TMP DP  RH WIND       PRES   REMARKS
BATTLE CREEK   MOCLDY    75  67  76 E7        30.08S
BENTON HARBOR  CLEAR     76  72  87 CALM      30.02S
BIG RAPIDS     CLEAR     71  65  82 W5        30.05S
COLDWATER      CLOUDY    77  68  72 NE6       30.08S
FREMONT        FAIR      72  69  93 CALM      30.04S
HOLLAND        CLEAR     76  70  82 E6        30.04R
GRAND RAPIDS   MOCLDY    77  65  66 SE6       30.05S
IONIA          FAIR      71  62  74 NE3       30.03F
KALAMAZOO      PTCLDY    75  65  70 E3        30.07R
LUDINGTON      PTCLDY    67  66  97 CALM      30.03R FOG
MARSHALL       CLOUDY    73  67  79 NE3       30.08S
MOUNT PLEASANT CLEAR     78  64  60 CALM      30.05F
MUSKEGON       MOCLDY    77  69  76 CALM      30.03S
SOUTH HAVEN    CLEAR     75  73  91 E3        30.03S
$$
MIZ016>042-220200-
NORTHERN LOWER MICHIGAN

CITY           SKY/WX    TMP DP  RH WIND       PRES   REMARKS
ALPENA         CLEAR     69  68  96 CALM      30.04S
BEAVER ISLAND  CLEAR     70  67  89 SE6       30.04R
BELLAIRE       CLEAR     69  67  93 CALM      30.04S
CADILLAC       CLEAR     71  66  82 CALM      30.07S
CHARLEVOIX     CLEAR     71  67  87 CALM      30.07S
FRANKFORT      PTCLDY    67  67 100 CALM      30.04R
GAYLORD        CLEAR     73  68  84 NE5       30.07R
GRAYLING       PTCLDY    74  68  82 CALM      30.07S
HARBOR SPRINGS CLEAR     72  69  90 NE5       30.04S
HOUGHTON LAKE  CLEAR     73  68  84 NW8       30.07R
MANISTEE       CLOUDY    68  66  94 CALM      30.03R FOG
OSCODA         CLEAR     73  67  83 S7        30.03S
PELLSTON       PTCLDY    69  68  96 CALM      30.05R
ROGERS CITY    CLEAR     67  65  94 CALM      30.06R
TRAVERSE CITY  PTCLDY    71  67  87 CALM      30.03R
$$
MIZ007>008-015-220200-
EASTERN UPPER MICHIGAN

CITY           SKY/WX    TMP DP  RH WIND       PRES   REMARKS
KINROSS        PTCLDY    69  67  93 SE5       30.07R
MACKINAC ISLAN CLEAR     70  67  89 SE7       30.05S
NEWBERRY       MOCLDY    68  67  97 SE5       30.04R
S. S. MARIE    PTCLDY    71  66  84 E6        30.05R
MUNISING         N/A     59  59 100 CALM      30.02R
$$
MIZ004>006-011>014-085-220200-
CENTRAL UPPER MICHIGAN

CITY           SKY/WX    TMP DP  RH WIND       PRES   REMARKS
MANISTIQUE     PTCLDY    65  59  81 CALM      30.02R HAZE
ESCANABA       CLEAR     66  66 100 CALM      30.01R FOG
MENOMINEE      CLEAR     69  67  93 SE6       30.01R
SAWYER-GWINN   CLEAR     61  57  88 E5        30.03S
$$
MIZ001>003-009>011-084-220200-
WESTERN UPPER MICHIGAN

CITY           SKY/WX    TMP DP  RH WIND       PRES   REMARKS
IRON MOUNTAIN  CLEAR     70  66  87 CALM      30.00R
HOUGHTON       CLEAR     58  55  90 E12       29.99S
COPPER HARBOR    N/A     60  57  89 VRB5      29.99F
IRONWOOD       CLEAR     74  67  78 SE8       29.94R
$$

ABBREVIATIONS USED IN REMARKS
   TC - TEMPERATURE IN CELSIUS
  WCI - WIND CHILL INDEX
   HX - HEAT INDEX
  VSB - VISIBILITY




USA.gov is the U.S. government's official web portal to all federal, state and local government web resources and services.